DW7995 Weather Reports


Display with metric or nautical units.
time (UTC)temp
F
wind
direction
speed
MPH
gust
MPH
rain 1hr
in
rain 24hr
in
rain mn
in
humidity
%
barometer
mb
20260905012539 66 0 0.0 0.0 0.00 0.45 0.45 90 1021.2
20260905012040 66 0 0.0 0.0 0.00 0.45 0.45 90 1021.2
20260905011606 66 0 0.0 0.0 0.00 0.45 0.45 90 1021.2
20260905011039 67 0 0.0 0.0 0.00 0.45 0.45 90 1021.2
20260905010539 66 0 0.0 0.0 0.00 0.45 0.45 89 1021.2
20260905010106 66 0 0.0 0.0 0.00 0.45 0.45 90 1021.2
20260905005543 67 0 0.0 0.0 0.00 0.45 0.45 91 1021.2
20260905005039 67 0 0.0 0.0 0.00 0.45 0.45 91 1021.2
20260905004603 67 0 0.0 0.0 0.00 0.45 0.45 90 1021.2
20260905004038 67 0 0.0 0.0 0.00 0.45 0.45 90 1021.2
20260905003539 67 0 0.0 0.0 0.00 0.45 0.45 90 1021.2
20260905003056 67 0 0.0 0.0 0.00 0.45 0.45 90 1021.2
20260905002538 67 0 0.0 0.0 0.00 0.45 0.45 90 1021.2
20260905002038 67 0 0.0 0.0 0.00 0.45 0.45 90 1021.2
20260905001555 68 0 0.0 0.0 0.00 0.45 0.45 90 1021.2
20260905001039 68 0 0.0 0.0 0.00 0.45 0.45 90 1021.2
20260905000541 67 0 0.0 0.0 0.00 0.45 0.45 90 1021.2
20260905000051 67 0 0.0 0.0 0.00 0.45 0.45 88 1021.2
20260904235538 68 0 0.0 0.0 0.00 0.45 0.45 89 1021.2
20260904235038 68 0 0.0 0.0 0.00 0.45 0.45 88 1021.2
20260904234556 68 0 0.0 0.0 0.00 0.45 0.45 86 1021.2
20260904234035 68 0 0.0 0.0 0.00 0.45 0.45 84 1021.2
20260904233539 68 0 0.0 1.0 0.00 0.45 0.45 83 1021.2
20260904233057 69 0 0.0 10.0 0.00 0.45 0.45 79 1021.2
20260904232540 70 0 0.0 10.0 0.00 0.45 0.45 75 1021.2
20260904232040 69 108 1.0 10.0 0.00 0.45 0.45 78 1021.2
20260904231555 69 0 0.0 0.0 0.00 0.45 0.45 89 1021.2
20260904231039 68 0 0.0 0.0 0.00 0.45 0.45 89 1021.2
20260904230539 68 0 0.0 0.0 0.00 0.45 0.45 90 1021.2
20260904230108 68 0 0.0 0.0 0.01 0.45 0.45 89 1021.2
20260904225540 68 0 0.0 0.0 0.01 0.45 0.45 89 1021.2
20260904225038 68 0 0.0 0.0 0.01 0.45 0.45 90 1021.2
20260904224610 67 0 0.0 0.0 0.01 0.45 0.45 91 1021.2
20260904224039 67 0 0.0 0.0 0.01 0.45 0.45 89 1021.2
20260904223541 66 0 0.0 0.0 0.01 0.45 0.45 91 1021.2
20260904223056 66 0 0.0 0.0 0.01 0.45 0.45 90 1021.2
20260904222539 66 0 0.0 0.0 0.02 0.45 0.45 91 1021.2
20260904222039 66 0 0.0 0.0 0.02 0.45 0.45 92 1021.2
20260904221557 65 0 0.0 0.0 0.02 0.45 0.45 91 1021.2
20260904221039 65 0 0.0 0.0 0.02 0.45 0.45 91 1021.2
20260904220539 65 0 0.0 0.0 0.02 0.45 0.45 91 1021.2
20260904220107 65 0 0.0 0.0 0.01 0.44 0.44 92 1021.2
20260904215539 65 0 0.0 0.0 0.02 0.44 0.44 93 1021.2
20260904215039 65 0 0.0 0.0 0.02 0.44 0.44 93 1021.2
20260904214558 65 0 0.0 0.0 0.03 0.44 0.44 92 1021.2
20260904214038 65 0 0.0 0.0 0.04 0.44 0.44 93 1021.2
20260904213540 64 0 0.0 0.0 0.04 0.44 0.44 92 1021.2
20260904213059 64 0 0.0 0.0 0.06 0.43 0.43 92 1021.2
20260904212540 64 0 0.0 0.0 0.07 0.43 0.43 92 1021.2
20260904212040 64 0 0.0 1.0 0.07 0.43 0.43 92 1021.2
20260904211559 64 0 0.0 1.0 0.07 0.43 0.43 92 1021.2
20260904211041 64 0 0.0 0.0 0.08 0.43 0.43 91 1021.2
20260904210539 64 0 0.0 0.0 0.09 0.43 0.43 91 1021.2
20260904210108 63 0 0.0 0.0 0.11 0.43 0.43 91 1021.2
20260904205539 63 0 0.0 0.0 0.14 0.44 0.42 91 1021.2
20260904205038 63 0 0.0 3.0 0.18 0.44 0.42 91 1021.2
20260904204558 63 0 0.0 3.0 0.20 0.43 0.41 91 1021.2
20260904204041 63 0 0.0 0.0 0.20 0.42 0.40 90 1021.2
20260904203538 63 0 0.0 2.0 0.24 0.41 0.39 90 1021.2
20260904203101 63 0 0.0 2.0 0.28 0.38 0.36 91 1021.2
20260904202538 63 0 0.0 0.0 0.35 0.38 0.36 90 1021.2
20260904202038 63 0 0.0 2.0 0.36 0.38 0.36 90 1021.2
20260904201558 63 0 0.0 2.0 0.36 0.38 0.36 88 1021.2
20260904201039 63 224 0.0 3.0 0.35 0.37 0.35 88 1021.2
20260904200541 63 0 0.0 3.0 0.34 0.36 0.34 87 1021.2
20260904200054 64 0 0.0 3.0 0.32 0.34 0.32 84 1021.2
20260904195538 64 0 0.0 6.0 0.27 0.43 0.27 85 1021.2
20260904195038 65 0 0.0 6.0 0.24 0.40 0.24 87 1021.2
20260904194552 65 66 0.0 5.0 0.21 0.37 0.21 87 1021.2
20260904194039 65 0 0.0 5.0 0.20 0.36 0.20 84 1021.2
20260904193538 67 78 0.0 6.0 0.14 0.30 0.14 78 1021.2
20260904193052 69 0 0.0 13.0 0.08 0.24 0.08 70 1021.2
20260904192541 72 122 2.0 15.0 0.01 0.17 0.01 64 1021.2
20260904192038 75 90 9.0 15.0 0.00 0.16 0.00 52 1021.2
20260904191605 79 139 3.0 11.0 0.00 0.16 0.00 53 1021.2
20260904191038 82 97 0.0 7.0 0.00 0.16 0.00 48 1021.2
20260904190538 82 0 1.0 5.0 0.00 0.16 0.00 47 1021.2
20260904190057 83 0 1.0 10.0 0.00 0.16 0.00 45 1021.2
20260904185538 84 0 3.0 10.0 0.00 0.16 0.00 44 1021.2
20260904185042 83 271 3.0 7.0 0.00 0.16 0.00 46 1021.2
20260904184606 83 0 0.0 2.0 0.00 0.16 0.00 48 1021.2
20260904184042 82 0 0.0 5.0 0.00 0.16 0.00 48 1021.2
20260904183537 82 0 1.0 6.0 0.00 0.16 0.00 47 1021.2
20260904183100 82 151 2.0 6.0 0.00 0.16 0.00 46 1021.2
20260904182538 84 297 0.0 6.0 0.00 0.16 0.00 45 1021.2
20260904182038 84 0 2.0 7.0 0.00 0.16 0.00 46 1021.2
20260904181557 83 275 2.0 7.0 0.00 0.16 0.00 47 1021.2
20260904181038 83 313 1.0 7.0 0.00 0.16 0.00 47 1021.2
20260904180538 83 0 1.0 7.0 0.00 0.16 0.00 46 1021.2
20260904180054 84 2 2.0 8.0 0.00 0.16 0.00 47 1021.2
20260904175538 83 56 3.0 8.0 0.00 0.16 0.00 47 1021.2
20260904175042 84 103 2.0 6.0 0.00 0.16 0.00 46 1021.2
20260904174559 84 331 1.0 6.0 0.00 0.16 0.00 46 1021.2
20260904174042 83 0 0.0 7.0 0.00 0.16 0.00 48 1021.2
20260904173539 82 0 1.0 7.0 0.00 0.16 0.00 48 1021.2
20260904173056 83 212 1.0 6.0 0.00 0.16 0.00 47 1021.2
20260904172541 82 0 2.0 6.0 0.00 0.16 0.00 48 1021.2
20260904172041 83 311 2.0 4.0 0.00 0.16 0.00 47 1021.2
20260904171559 82 0 0.0 5.0 0.00 0.16 0.00 48 1021.2
20260904171039 81 0 1.0 5.0 0.00 0.16 0.00 49 1021.2
20260904170539 81 340 2.0 4.0 0.00 0.16 0.00 49 1021.2
20260904170101 81 0 0.0 7.0 0.00 0.16 0.00 49 1021.2
20260904165540 81 0 0.0 7.0 0.00 0.16 0.00 49 1021.2
20260904165040 81 44 0.0 7.0 0.00 0.16 0.00 51 1021.2
20260904164600 81 359 0.0 5.0 0.00 0.16 0.00 50 1021.2
20260904164039 81 245 1.0 6.0 0.00 0.16 0.00 50 1021.2
20260904163539 81 20 2.0 6.0 0.00 0.16 0.00 49 1021.2
20260904163052 80 0 1.0 5.0 0.00 0.16 0.00 51 1021.2
20260904162539 80 50 1.0 6.0 0.00 0.16 0.00 52 1021.2
20260904162041 79 0 2.0 6.0 0.00 0.16 0.00 53 1021.2
20260904161551 79 0 1.0 6.0 0.00 0.16 0.00 53 1021.2
20260904161039 79 252 0.0 7.0 0.00 0.16 0.00 53 1021.2
20260904160540 78 0 2.0 7.0 0.00 0.16 0.00 54 1021.2
20260904160059 78 307 0.0 6.0 0.00 0.16 0.00 53 1021.2
20260904155539 78 0 1.0 5.0 0.00 0.16 0.00 54 1021.2
20260904155039 78 0 1.0 5.0 0.00 0.16 0.00 53 1021.2
20260904154559 77 340 0.0 6.0 0.00 0.16 0.00 53 1021.2
20260904154041 77 0 1.0 6.0 0.00 0.16 0.00 52 1021.2
20260904153539 77 349 0.0 5.0 0.00 0.16 0.00 52 1021.2
20260904153058 77 266 2.0 5.0 0.00 0.16 0.00 51 1021.2
20260904152539 77 0 1.0 4.0 0.00 0.16 0.00 53 1021.2
20260904152041 78 0 1.0 6.0 0.00 0.16 0.00 51 1021.2
20260904151559 78 0 1.0 6.0 0.00 0.16 0.00 52 1021.2
20260904151039 77 359 1.0 6.0 0.00 0.16 0.00 52 1021.2
20260904150539 77 303 0.0 5.0 0.00 0.16 0.00 54 1021.2
20260904150059 76 0 0.0 5.0 0.00 0.16 0.00 55 1021.2
20260904145540 76 0 1.0 5.0 0.00 0.16 0.00 56 1021.2
20260904145040 75 242 0.0 4.0 0.00 0.16 0.00 57 1021.2
20260904144556 75 3 1.0 4.0 0.00 0.16 0.00 56 1021.2
20260904144043 75 304 0.0 6.0 0.00 0.16 0.00 57 1021.2
20260904143539 74 0 2.0 6.0 0.00 0.16 0.00 58 1021.2
20260904143053 74 321 2.0 6.0 0.00 0.16 0.00 58 1021.2
20260904142539 74 0 2.0 5.0 0.00 0.16 0.00 59 1021.2
20260904142038 74 355 1.0 5.0 0.00 0.16 0.00 59 1021.2
20260904141605 73 0 0.0 5.0 0.00 0.16 0.00 60 1021.2
20260904141039 73 226 0.0 5.0 0.00 0.16 0.00 60 1021.2
20260904140538 73 252 0.0 7.0 0.00 0.16 0.00 60 1021.2
20260904140105 73 221 0.0 7.0 0.00 0.16 0.00 61 1021.2
20260904135539 72 0 0.0 5.0 0.00 0.16 0.00 62 1021.2
20260904135039 72 238 2.0 5.0 0.00 0.16 0.00 62 1021.2
20260904134606 71 209 1.0 7.0 0.00 0.16 0.00 63 1021.2
20260904134039 71 0 0.0 7.0 0.00 0.16 0.00 63 1021.2
20260904133539 71 222 1.0 6.0 0.00 0.16 0.00 64 1021.2
20260904133058 70 0 0.0 6.0 0.00 0.16 0.00 65 1021.2
20260904132540 70 0 0.0 6.0 0.00 0.16 0.00 65 1021.2
20260904132039 69 0 2.0 6.0 0.00 0.16 0.00 65 1021.2
20260904131556 69 0 0.0 5.0 0.00 0.16 0.00 66 1021.2
20260904131039 68 0 0.0 4.0 0.00 0.16 0.00 67 1021.2
20260904130539 68 222 0.0 4.0 0.00 0.16 0.00 68 1021.2
20260904130059 67 244 0.0 3.0 0.00 0.16 0.00 70 1021.2
20260904125539 67 296 0.0 0.0 0.00 0.16 0.00 71 1021.2
20260904125039 67 0 0.0 0.0 0.00 0.16 0.00 70 1021.2
20260904124600 67 0 0.0 0.0 0.00 0.16 0.00 69 1021.2
20260904124038 67 0 0.0 0.0 0.00 0.16 0.00 69 1021.2
20260904123540 68 0 0.0 4.0 0.00 0.16 0.00 68 1021.2
20260904123103 68 0 0.0 4.0 0.00 0.16 0.00 68 1021.2
20260904122540 68 0 1.0 4.0 0.00 0.16 0.00 68 1021.2
20260904122040 68 0 0.0 0.0 0.00 0.16 0.00 68 1021.2
20260904121559 68 0 0.0 0.0 0.00 0.16 0.00 68 1021.2
20260904121040 68 0 0.0 1.0 0.00 0.16 0.00 69 1021.2
20260904120539 68 0 0.0 4.0 0.00 0.16 0.00 69 1021.2
20260904120056 68 0 1.0 6.0 0.00 0.16 0.00 69 1021.2
20260904115539 68 239 1.0 6.0 0.00 0.16 0.00 69 1021.2
20260904115040 68 229 0.0 4.0 0.00 0.16 0.00 69 1021.2
20260904114551 68 0 0.0 4.0 0.00 0.16 0.00 69 1021.2
20260904114040 68 252 0.0 1.0 0.00 0.16 0.00 69 1021.2
20260904113540 68 0 0.0 1.0 0.00 0.16 0.00 69 1021.2
20260904113057 68 0 0.0 7.0 0.00 0.16 0.00 68 1021.2
20260904112539 68 0 0.0 7.0 0.00 0.16 0.00 68 1021.2
20260904112040 68 0 1.0 8.0 0.00 0.16 0.00 68 1021.2
20260904111557 68 268 2.0 8.0 0.00 0.16 0.00 68 1021.2
20260904111041 68 236 0.0 7.0 0.00 0.16 0.00 68 1021.2
20260904110540 68 292 0.0 4.0 0.00 0.16 0.00 68 1021.2
20260904110055 68 233 0.0 4.0 0.00 0.16 0.00 68 1021.2
20260904105541 67 0 0.0 3.0 0.00 0.16 0.00 69 1021.2
20260904105039 68 264 0.0 3.0 0.00 0.16 0.00 69 1021.2
20260904104555 68 0 0.0 3.0 0.00 0.16 0.00 69 1021.2
20260904104043 68 0 0.0 4.0 0.00 0.16 0.00 69 1021.2
20260904103539 68 0 0.0 6.0 0.00 0.16 0.00 68 1021.2
20260904103049 68 244 1.0 6.0 0.00 0.16 0.00 68 1021.2
20260904102544 68 0 0.0 5.0 0.00 0.16 0.00 69 1021.2
20260904102039 68 220 1.0 7.0 0.00 0.16 0.00 68 1021.2
20260904101556 68 0 2.0 10.0 0.00 0.16 0.00 68 1021.2
20260904101039 68 234 3.0 10.0 0.00 0.16 0.00 68 1021.2
20260904100540 68 240 3.0 9.0 0.00 0.16 0.00 67 1021.2
20260904100100 68 213 2.0 8.0 0.00 0.16 0.00 67 1021.2
20260904095540 69 302 3.0 11.0 0.00 0.16 0.00 66 1021.2
20260904095039 69 231 3.0 11.0 0.00 0.16 0.00 66 1021.2
20260904094559 69 210 3.0 11.0 0.00 0.16 0.00 66 1021.2
20260904094039 69 217 3.0 7.0 0.00 0.16 0.00 66 1021.2
20260904093541 68 232 2.0 7.0 0.00 0.16 0.00 67 1021.2
20260904093056 68 173 1.0 4.0 0.00 0.16 0.00 68 1021.2
20260904092543 68 0 0.0 8.0 0.00 0.16 0.00 68 1021.2
20260904092042 68 0 1.0 8.0 0.00 0.16 0.00 68 1021.2
20260904091553 68 228 2.0 8.0 0.00 0.16 0.00 67 1021.2
20260904091040 68 258 1.0 9.0 0.00 0.16 0.00 67 1021.2
20260904090539 69 281 3.0 9.0 0.00 0.16 0.00 66 1021.2
20260904090057 69 238 2.0 9.0 0.00 0.16 0.00 65 1021.2
20260904085540 69 243 0.0 3.0 0.00 0.16 0.00 65 1021.2
20260904085040 69 0 0.0 3.0 0.00 0.16 0.00 65 1021.2
20260904084558 69 0 0.0 3.0 0.00 0.16 0.00 64 1021.2
20260904084039 69 0 0.0 3.0 0.00 0.16 0.00 65 1021.2
20260904083539 69 257 0.0 2.0 0.00 0.16 0.00 65 1021.2
20260904083057 69 0 0.0 0.0 0.00 0.16 0.00 66 1021.2
20260904082540 69 0 0.0 0.0 0.00 0.16 0.00 65 1021.2
20260904082040 69 0 0.0 2.0 0.00 0.16 0.00 65 1021.2
20260904081601 69 0 0.0 6.0 0.00 0.16 0.00 65 1021.2
20260904081040 69 0 0.0 6.0 0.00 0.16 0.00 65 1021.2
20260904080540 69 0 0.0 5.0 0.00 0.16 0.00 65 1021.2
20260904075539 70 0 1.0 5.0 0.00 0.16 0.00 64 1021.2
20260904075040 70 215 0.0 6.0 0.00 0.16 0.00 64 1021.2
20260904074610 69 221 3.0 6.0 0.00 0.16 0.00 65 1021.2
20260904074039 69 237 0.0 4.0 0.00 0.16 0.00 65 1021.2
20260904073539 69 0 0.0 4.0 0.00 0.16 0.00 64 1021.2
20260904073101 69 0 0.0 6.0 0.00 0.16 0.00 65 1021.2
20260904072542 68 237 0.0 6.0 0.00 0.16 0.00 66 1021.2
20260904072040 66 0 2.0 6.0 0.00 0.16 0.00 70 1021.2
20260904071601 64 0 0.0 0.0 0.00 0.16 0.00 79 1021.2
20260904071043 64 0 0.0 0.0 0.00 0.16 0.00 81 1021.2
20260904070540 64 0 0.0 0.0 0.00 0.16 0.00 82 1021.2
20260904065539 64 0 0.0 0.0 0.00 0.16 0.00 81 1021.2
20260904065042 64 0 0.0 0.0 0.00 0.16 0.00 80 1021.2
20260904064602 64 0 0.0 0.0 0.00 0.16 0.00 82 1021.2
20260904064039 64 0 0.0 0.0 0.00 0.16 0.00 83 1021.2
20260904063539 64 0 0.0 0.0 0.00 0.16 0.00 82 1021.2
20260904063103 64 0 0.0 0.0 0.00 0.16 0.00 82 1021.2
20260904062538 64 0 0.0 0.0 0.00 0.16 0.00 82 1021.2
20260904062040 64 0 0.0 0.0 0.00 0.16 0.00 81 1021.2
20260904061550 64 0 0.0 0.0 0.00 0.16 0.00 80 1021.2
20260904061040 64 0 0.0 0.0 0.00 0.16 0.00 82 1021.2
20260904060544 64 0 0.0 0.0 0.00 0.16 0.00 82 1021.2
20260904060105 64 0 0.0 0.0 0.00 0.16 0.00 82 1021.2
20260904055540 64 0 0.0 0.0 0.00 0.16 0.00 81 1021.2
20260904055039 64 0 0.0 0.0 0.00 0.16 0.00 80 1021.2
20260904054557 64 0 0.0 0.0 0.00 0.16 0.00 81 1021.2
20260904054040 65 0 0.0 0.0 0.00 0.16 0.00 80 1021.2
20260904053539 65 0 0.0 0.0 0.00 0.16 0.00 78 1021.2
20260904053051 64 0 0.0 0.0 0.00 0.16 0.00 79 1021.2
20260904052539 64 0 0.0 0.0 0.00 0.16 0.00 80 1021.2
20260904052039 64 0 0.0 0.0 0.00 0.16 0.00 80 1021.2
20260904051600 64 0 0.0 0.0 0.00 0.16 0.00 79 1021.2
20260904051040 64 0 0.0 0.0 0.00 0.16 0.00 79 1021.2
20260904050539 64 0 0.0 0.0 0.00 0.16 0.00 80 1021.2
20260904050056 64 0 0.0 0.0 0.00 0.16 0.00 80 1021.2
20260904045539 64 0 0.0 0.0 0.00 0.16 0.16 80 1021.2
20260904045040 64 0 0.0 0.0 0.00 0.16 0.16 77 1021.2
20260904044557 64 0 0.0 0.0 0.00 0.16 0.16 78 1021.2
20260904044038 63 0 0.0 0.0 0.00 0.16 0.16 79 1021.2
20260904043539 64 0 0.0 0.0 0.00 0.16 0.16 81 1021.2
20260904043057 64 0 0.0 0.0 0.00 0.16 0.16 79 1021.2
20260904042539 64 0 0.0 0.0 0.00 0.16 0.16 78 1021.2
20260904042040 64 0 0.0 0.0 0.00 0.16 0.16 77 1021.2
20260904041555 64 0 0.0 0.0 0.00 0.16 0.16 77 1021.2
20260904041040 63 0 0.0 0.0 0.00 0.16 0.16 78 1021.2
20260904040539 63 0 0.0 0.0 0.00 0.16 0.16 79 1021.2
20260904040059 63 0 0.0 0.0 0.00 0.16 0.16 80 1021.2
20260904035539 63 0 0.0 0.0 0.00 0.16 0.16 79 1021.2
20260904035040 63 0 0.0 0.0 0.00 0.16 0.16 79 1021.2
20260904034550 63 0 0.0 0.0 0.00 0.16 0.16 79 1021.2
20260904034041 63 0 0.0 0.0 0.00 0.16 0.16 79 1021.2
20260904033541 63 0 0.0 0.0 0.00 0.16 0.16 79 1021.2
20260904033058 64 0 0.0 0.0 0.00 0.16 0.16 79 1021.2
20260904032539 63 0 0.0 0.0 0.00 0.16 0.16 77 1021.2
20260904032039 63 0 0.0 0.0 0.00 0.16 0.16 80 1021.2
20260904031600 64 0 0.0 0.0 0.00 0.16 0.16 78 1021.2
20260904031039 64 0 0.0 0.0 0.00 0.16 0.16 78 1021.2
20260904030540 64 0 0.0 3.0 0.00 0.16 0.16 76 1021.2
20260904030053 64 0 0.0 3.0 0.00 0.16 0.16 78 1021.2
20260904025539 63 0 0.0 3.0 0.00 0.16 0.16 79 1021.2
20260904025039 63 0 0.0 0.0 0.00 0.16 0.16 81 1021.2
20260904024553 63 0 0.0 0.0 0.00 0.16 0.16 79 1021.2
20260904024040 63 0 0.0 0.0 0.00 0.16 0.16 79 1021.2
20260904023538 63 0 0.0 0.0 0.00 0.16 0.16 77 1021.2
20260904023056 63 0 0.0 0.0 0.00 0.16 0.16 77 1021.2
20260904022539 64 0 0.0 0.0 0.00 0.16 0.16 77 1021.2
20260904022040 64 0 0.0 0.0 0.00 0.16 0.16 75 1021.2
20260904021553 64 0 0.0 0.0 0.00 0.16 0.16 74 1021.2
20260904021041 65 0 0.0 0.0 0.00 0.16 0.16 76 1021.2
20260904020539 65 0 0.0 0.0 0.00 0.16 0.16 75 1021.2
20260904020055 65 0 0.0 0.0 0.00 0.16 0.16 72 1021.2
20260904015538 65 0 0.0 0.0 0.00 0.16 0.16 73 1021.2
20260904015040 66 0 0.0 0.0 0.00 0.16 0.16 76 1021.2
20260904014607 66 0 0.0 0.0 0.00 0.16 0.16 75 1021.2
20260904014042 67 0 0.0 0.0 0.00 0.16 0.16 74 1021.2
20260904013543 68 0 0.0 0.0 0.00 0.16 0.16 73 1021.2
20260904013055 68 0 0.0 0.0 0.00 0.16 0.16 70 1021.2